Renton, WA
on Monday, February 4, 2013

Monday
Previous Day Next Day
Daily Summary
 ActualAverage (KSEA)Record (KSEA)
Temperature
Mean Temperature °F 43°F  
Max Temperature 51°F 49°F 63°F (1993)
Min Temperature 44°F 37°F 7°F (1989)
Degree Days
Heating Degree Days 18 22  
Month to date heating degree days 88  
Since 1 July heating degree days 2737  
Cooling Degree Days 0 0  
Month to date cooling degree days 0  
Year to date cooling degree days 0  
Moisture
Dew Point 42°F   
Average Humidity 85    
Maximum Humidity 96    
Minimum Humidity 66    
Precipitation
Precipitation 0.00 in 0.13 in 0.91 in (1965)
Month to date precipitation 0.53  
Year to date precipitation 6.10  
Snow
Snow 0.00 in in 1.70 in (1949)
Month to date snowfall  
Since 1 July snowfall  
Snow Depth in   
Wind
Wind Speed 2 mph   
Max Wind Speed 6 mph   
Max Gust Speed mph   
Visibility 10 miles   
Events     

Key: T is trace of precipitation, MM is missing value
Source: NWS Daily Summary
Time(PST)TemperatureDew PointHumidity Pressure Visibility Wind DirectionWind SpeedGust SpeedPrecipitationEvents Conditions
12:02 AM 44.6°F 42.8°F 93% 30.22 in 8.0 miles Calm Calm - N/A   Overcast
12:53 AM 44.1°F 43.0°F 96% 30.22 in 8.0 miles Calm Calm - N/A   Overcast
2:53 AM 44.6°F 42.8°F 93% 30.20 in 10.0 miles Calm Calm - N/A   Overcast
3:08 AM 44.6°F 42.8°F 93% 30.20 in 10.0 miles Calm Calm - N/A   Overcast
3:53 AM 44.1°F 42.1°F 93% 30.22 in 10.0 miles Calm Calm - N/A   Overcast
4:53 AM 44.1°F 42.1°F 93% 30.20 in 10.0 miles East 5.8 mph - N/A   Overcast
5:53 AM 44.1°F 42.1°F 93% 30.19 in 10.0 miles ESE 4.6 mph - N/A   Overcast
6:20 AM 44.6°F 42.8°F 93% 30.17 in 10.0 miles SE 3.5 mph - N/A   Overcast
6:53 AM 44.1°F 42.1°F 93% 30.18 in 10.0 miles ESE 3.5 mph - N/A   Overcast
7:53 AM 44.1°F 42.1°F 93% 30.19 in 10.0 miles East 5.8 mph - N/A   Overcast
8:53 AM 45.0°F 42.1°F 90% 30.19 in 10.0 miles SE 3.5 mph - N/A   Overcast
9:53 AM 46.0°F 42.1°F 86% 30.18 in 10.0 miles SE 3.5 mph - N/A   Overcast
10:53 AM 46.9°F 42.1°F 83% 30.19 in 10.0 miles ESE 5.8 mph - N/A   Overcast
11:10 AM 48.2°F 42.8°F 82% 30.16 in 10.0 miles SSE 4.6 mph - N/A   Overcast
11:53 AM 48.9°F 42.1°F 77% 30.16 in 10.0 miles East 5.8 mph - N/A   Mostly Cloudy
12:14 PM 48.2°F 39.2°F 71% 30.13 in 10.0 miles Calm Calm - N/A   Partly Cloudy
12:53 PM 50.0°F 41.0°F 71% 30.12 in 10.0 miles South 3.5 mph - N/A   Clear
1:53 PM 51.1°F 39.9°F 66% 30.09 in 10.0 miles Calm Calm - N/A   Clear
2:53 PM 50.0°F 39.9°F 68% 30.05 in 10.0 miles NW 3.5 mph - N/A   Clear
3:53 PM 48.9°F 41.0°F 74% 30.02 in 10.0 miles WNW 4.6 mph - N/A   Clear
4:53 PM 48.0°F 42.1°F 80% 30.02 in 10.0 miles NW 3.5 mph - N/A   Overcast
5:53 PM 48.0°F 41.0°F 77% 30.02 in 10.0 miles Calm Calm - N/A   Overcast
6:53 PM 48.0°F 42.1°F 80% 29.99 in 10.0 miles East 4.6 mph - N/A   Overcast
7:53 PM 48.0°F 42.1°F 80% 29.93 in 10.0 miles Calm Calm - N/A   Overcast
8:53 PM 46.9°F 43.0°F 86% 29.92 in 10.0 miles West 3.5 mph - N/A   Overcast
9:53 PM 46.9°F 43.0°F 86% 29.93 in 10.0 miles Calm Calm - N/A   Overcast
10:53 PM 46.0°F 43.0°F 89% 29.93 in 10.0 miles SSE 4.6 mph - N/A   Overcast
11:53 PM 45.0°F 42.1°F 90% 29.93 in 10.0 miles South 4.6 mph - N/A   Mostly Cloudy
Moon Phase
Feb. 04 Feb. 10 Feb. 17 Feb. 25 Mar. 04
Sunrise:07:30 AM (PST) Moon Rise:02:18 AM (PST)2/4
Sunset:05:15 PM (PST) Moon Set:11:37 AM (PST)2/4

Copyright © 2014 The Weather Underground, Inc.